NOAA NWS Hourly Roundups by Site

Regional Weather Roundup for Seattle, WA

To Select Another Site Choose from List

Select Site:  

000
ASUS46 KSEW 281720
RWRWA

WASHINGTON REGIONAL WEATHER ROUNDUP
NATIONAL WEATHER SERVICE SEATTLE WA
900 AM PST TUE JAN 28 2020

NOTE:"FAIR" INDICATES FEW OR NO CLOUDS BELOW 12,000 FEET WITH NO
SIGNIFICANT WEATHER AND/OR OBSTRUCTIONS TO VISIBILITY.

WAZ507-509-555>559-281800-
SEATTLE, TACOMA, EVERETT, AND VICINITY

CITY           SKY/WX    TMP DP  RH WIND       PRES   REMARKS
EVERETT        LGT RAIN  44  42  93 VRB5      29.93R
BOEING FIELD   LGT RAIN  47  44  90 SE10      29.93R FOG
RENTON         LGT RAIN  45  42  89 SE3       29.94R FOG
SEATAC AIRPORT LGT RAIN  47  44  90 SE3       29.92R
JBLM-MCCHORD   CLOUDY    46  46 100 S3        29.92R
PUYALLUP       PTSUNNY   45  45 100 CALM      29.91R
BREMERTON      CLOUDY    45  45 100 S5        29.92R
JBLM-FT LEWIS  LGT RAIN  46  46 100 SE5       29.91R
TACOMA NARROWS LGT RAIN  45  44  97 SE3       29.91R
$$

WAZ001-503-506-510-514-515-281800-
NORTH INTERIOR

CITY           SKY/WX    TMP DP  RH WIND       PRES   REMARKS
BELLINGHAM     LGT RAIN  41  38  89 N5        29.93R
FRIDAY HARBOR  LGT RAIN  45  43  93 VRB5      29.92R
EASTSOUND      CLOUDY    45  45 100 NE6       29.92R
PORT ANGELES   LGT RAIN  44  43  96 SW3       29.91R
EDIZ HOOK      DRIZZLE   46  45  98 W5        29.91R
PORT TOWNSEND  CLOUDY    45  45 100 CALM      29.91R
NAS WHIDBEY    LGT RAIN  49  43  80 E12       29.96R
ARLINGTON      CLOUDY    45  43  93 SE7       29.93R
BURLINGTON     CLOUDY    43  43 100 E9        29.93R
$$

WAZ020-022-039-040-504-511-512-281800-
SOUTHWEST INTERIOR

CITY           SKY/WX    TMP DP  RH WIND       PRES   REMARKS
SHELTON        LGT RAIN  44  43  96 CALM      29.90R
OLYMPIA        LGT RAIN  46  45  96 CALM      29.91R
CHEHALIS       CLOUDY    48  46  93 S5        29.92R
KELSO          HVY RAIN  48  45  89 SE13G18   29.93R
VANCOUVER      LGT RAIN  48  43  82 VRB7G18   29.96R
SCAPPOOSE, OR  LGT RAIN  48  44  86 S8G17     29.93R FOG
PORTLAND, OR   LGT RAIN  48  44  86 S10       29.97R
$$

WAZ021-516-517-281800-
WASHINGTON COAST

CITY           SKY/WX    TMP DP  RH WIND       PRES   REMARKS
FORKS          CLOUDY    45  43  93 CALM      29.89R
HOQUIAM        RAIN      47  47 100 E9        29.88R
ASTORIA, OR    CLOUDY    50  47  89 SW13G20   29.91R
$$

WAZ019-023-024-040-567>569-281800-
CASCADE MOUNTAINS AND COLUMBIA GORGE

CITY           SKY/WX    TMP DP  RH WIND       PRES   REMARKS
STAMPEDE PASS  LGT SNOW  32  30  92 CALM      29.89R VSB 1
TROUTDALE, OR  LGT RAIN  49  43  80 S6        29.98R
HOOD RIVER, OR RAIN      39  37  93 CALM      29.99R
THE DALLES, OR MOSUNNY   40  38  93 CALM      29.99R
$$

WAZ026-027-041>044-520-521-281800-
EAST SLOPES

CITY           SKY/WX    TMP DP  RH WIND       PRES   REMARKS
OMAK           CLOUDY    34  32  92 CALM      29.99F FOG
WENATCHEE      FOG       32  31  96 W5        29.99R VSB 1/4
ELLENSBURG     LGT RAIN  37  34  89 N5        29.94S
YAKIMA         CLOUDY    38  35  89 NW5       29.97R
SUNNYSIDE ARPT CLOUDY    45  42  89 S5        29.98
YAKIMA TC      PTSUNNY   37  36  93 CALM      29.95R
$$

WAZ028-034-035-281800-
COLUMBIA BASIN

CITY           SKY/WX    TMP DP  RH WIND       PRES   REMARKS
EPHRATA        CLOUDY    38  35  89 NW9       29.97R
MOSES LAKE     FOG       38  35  89 NW5       29.97R VSB 1/4
PASCO          CLOUDY    44  42  93 CALM      29.99R
RICHLAND ARPT  CLOUDY    42  42  99 CALM      30.00S
HERMISTON, OR  PTSUNNY   45  43  93 SE5       29.98F FOG
$$

WAZ036>038-281800-
NORTHEAST WASHINGTON

CITY           SKY/WX    TMP DP  RH WIND       PRES   REMARKS
SPOKANE GEIGER FOG       36  34  92 NE7       29.96R VSB 1/8
SPOKANE FELTS  CLOUDY    39  36  89 VRB3      29.98F
FAIRCHILD AFB  CLOUDY    41  41 100 NE7       29.95S FOG
COEURDALENE,ID CLOUDY    33  32  96 NE6       29.99S
DEER PARK      CLOUDY    34  32  92 NE5       29.98S
$$

WAZ029>033-281800-
SOUTHEAST WASHINGTON

CITY           SKY/WX    TMP DP  RH WIND       PRES   REMARKS
PULLMAN        CLOUDY    39  36  89 E13       30.00F
LEWISTON, ID   CLOUDY    43  36  76 E8        30.01F
WALLA WALLA    RAIN      44  40  85 S7        30.03R
PENDLETON, OR  CLOUDY    43  39  86 SE6       29.98R
$$


 

View Past Reports for Seattle, WA.

Products Courtesy of NOAA-NWS
NWS Information Parsing Script by Ken True at Saratoga Weather - Script by SE Lincoln Weather.